When you browse on this site, cookies collect data to enhance your experience and personalize the content and advertising you see.
Visit our Privacy Policy to learn more. By continuing to use the site, you agree to this use of cookies and data.
  • In Hungary
  • List of Countries
  • For 7 days
  • Water Temperature
  • Satellite Maps
  • Weather Map
  • News
  • Weather Widgets
  • user-avatar
    Login

    Hourly Weather Strongsville

    Today, 24 January, Thursday

    Time Temperature Precipitation Wind Pressure Humidity
    00:00 -1°C° 1.2 mm 4 mps 728 mmHg 97%
    01:00 0°C° 0 mm 3 mps 728 mmHg 97%
    02:00 -2°C° 0.7 mm 4 mps 728 mmHg 96%
    03:00 -3°C° 0.7 mm 4 mps 728 mmHg 95%
    04:00 -5°C° 0.7 mm 5 mps 728 mmHg 94%
    05:00 -5°C° 0.1 mm 4 mps 728 mmHg 93%
    06:00 -5°C° 0.1 mm 4 mps 729 mmHg 92%
    07:00 -7°C° 0.1 mm 4 mps 729 mmHg 92%
    08:00 -7°C° 0 mm 4 mps 730 mmHg 91%
    09:00 -7°C° 0 mm 5 mps 730 mmHg 90%
    10:00 -6°C° 0 mm 5 mps 730 mmHg 89%
    11:00 -6°C° 0.1 mm 5 mps 731 mmHg 87%
    12:00 -6°C° 0.1 mm 5 mps 731 mmHg 85%
    13:00 -5°C° 0.1 mm 5 mps 731 mmHg 83%
    14:00 -5°C° 0 mm 5 mps 731 mmHg 83%
    15:00 -5°C° 0 mm 5 mps 731 mmHg 83%
    16:00 -5°C° 0 mm 5 mps 732 mmHg 83%
    17:00 -6°C° 0 mm 5 mps 732 mmHg 84%
    18:00 -7°C° 0 mm 5 mps 732 mmHg 85%
    19:00 -7°C° 0 mm 5 mps 732 mmHg 86%
    20:00 -7°C° 0 mm 5 mps 732 mmHg 86%
    21:00 -8°C° 0 mm 6 mps 733 mmHg 86%
    22:00 -8°C° 0 mm 6 mps 733 mmHg 87%
    23:00 -9°C° 0 mm 6 mps 733 mmHg 86%

    Tomorrow, 25 January, Friday

    Time Temperature Precipitation Wind Pressure Humidity
    00:00 -9°C° 0 mm 6 mps 733 mmHg 86%
    01:00 -9°C° 0 mm 6 mps 733 mmHg 85%
    02:00 -11°C° 0.1 mm 7 mps 734 mmHg 84%
    03:00 -12°C° 0.1 mm 8 mps 734 mmHg 83%
    04:00 -13°C° 0.1 mm 8 mps 735 mmHg 83%
    05:00 -16°C° 0 mm 8 mps 735 mmHg 82%
    06:00 -17°C° 0 mm 8 mps 736 mmHg 82%
    07:00 -19°C° 0 mm 8 mps 736 mmHg 82%
    08:00 -19°C° 0 mm 8 mps 737 mmHg 82%
    09:00 -19°C° 0 mm 8 mps 738 mmHg 82%
    10:00 -21°C° 0 mm 8 mps 739 mmHg 82%
    11:00 -19°C° 0 mm 7 mps 739 mmHg 82%
    12:00 -19°C° 0 mm 7 mps 739 mmHg 81%
    13:00 -18°C° 0 mm 7 mps 739 mmHg 81%
    14:00 -17°C° 0 mm 6 mps 739 mmHg 81%
    15:00 -17°C° 0 mm 6 mps 740 mmHg 81%
    16:00 -17°C° 0 mm 6 mps 740 mmHg 81%
    17:00 -18°C° 0 mm 5 mps 740 mmHg 82%
    18:00 -18°C° 0 mm 5 mps 740 mmHg 83%
    19:00 -18°C° 0 mm 4 mps 741 mmHg 84%
    20:00 -18°C° 0 mm 4 mps 741 mmHg 84%
    21:00 -18°C° 0 mm 4 mps 741 mmHg 83%
    22:00 -17°C° 0 mm 3 mps 741 mmHg 83%
    23:00 -17°C° 0 mm 3 mps 741 mmHg 83%

    Day after tomorrow, 26 January, Saturday

    Time Temperature Precipitation Wind Pressure Humidity
    00:00 -16°C° 0 mm 3 mps 741 mmHg 83%
    01:00 -16°C° 0 mm 3 mps 741 mmHg 84%
    02:00 -15°C° 0 mm 2 mps 740 mmHg 86%
    03:00 -15°C° 0 mm 2 mps 740 mmHg 88%
    04:00 -15°C° 0 mm 2 mps 740 mmHg 90%
    05:00 -14°C° 0 mm 2 mps 740 mmHg 91%
    06:00 -14°C° 0 mm 2 mps 740 mmHg 92%
    07:00 -14°C° 0 mm 2 mps 740 mmHg 93%
    08:00 -14°C° 0.1 mm 3 mps 740 mmHg 91%
    09:00 -12°C° 0.1 mm 3 mps 739 mmHg 90%
    10:00 -10°C° 0.1 mm 3 mps 739 mmHg 89%
    11:00 -10°C° 0.1 mm 4 mps 739 mmHg 88%
    12:00 -9°C° 0.1 mm 4 mps 738 mmHg 87%
    13:00 -8°C° 0.1 mm 4 mps 737 mmHg 86%
    14:00 -8°C° 0.2 mm 4 mps 737 mmHg 86%
    15:00 -7°C° 0.2 mm 4 mps 736 mmHg 87%
    16:00 -7°C° 0.2 mm 4 mps 735 mmHg 88%
    17:00 -6°C° 0.3 mm 3 mps 735 mmHg 90%
    18:00 -6°C° 0.3 mm 3 mps 735 mmHg 93%
    19:00 -6°C° 0.3 mm 3 mps 735 mmHg 95%
    20:00 -7°C° 0.1 mm 3 mps 735 mmHg 94%
    21:00 -9°C° 0.1 mm 3 mps 736 mmHg 94%
    22:00 -10°C° 0.1 mm 3 mps 736 mmHg 93%
    23:00 -12°C° 0 mm 3 mps 736 mmHg 94%

    27 January, Sunday

    Time Temperature Precipitation Wind Pressure Humidity
    00:00 -13°C° 0 mm 3 mps 736 mmHg 94%
    01:00 -14°C° 0 mm 3 mps 736 mmHg 95%
    02:00 -14°C° 0 mm 3 mps 736 mmHg 95%
    03:00 -15°C° 0 mm 3 mps 736 mmHg 95%
    04:00 -15°C° 0 mm 3 mps 736 mmHg 95%
    05:00 -15°C° 0 mm 3 mps 736 mmHg 94%
    06:00 -14°C° 0 mm 3 mps 736 mmHg 94%
    07:00 -14°C° 0 mm 3 mps 736 mmHg 93%
    08:00 -13°C° 0 mm 3 mps 736 mmHg 93%
    09:00 -10°C° 0 mm 3 mps 736 mmHg 92%
    10:00 -9°C° 0 mm 3 mps 736 mmHg 91%
    11:00 -8°C° 0.1 mm 3 mps 736 mmHg 90%
    12:00 -6°C° 0.1 mm 3 mps 735 mmHg 89%
    13:00 -5°C° 0.1 mm 3 mps 735 mmHg 87%
    14:00 -5°C° 0.1 mm 3 mps 734 mmHg 87%
    15:00 -3°C° 0.1 mm 2 mps 734 mmHg 87%
    16:00 -3°C° 0.1 mm 2 mps 733 mmHg 87%
    17:00 -1°C° 0.3 mm 1 mps 733 mmHg 91%
    18:00 -2°C° 0.3 mm 1 mps 733 mmHg 94%
    19:00 -2°C° 0.3 mm 1 mps 733 mmHg 97%
    20:00 -2°C° 0.5 mm 1 mps 733 mmHg 97%
    21:00 -2°C° 0.5 mm 1 mps 733 mmHg 98%
    22:00 -4°C° 0.5 mm 2 mps 733 mmHg 98%
    23:00 -4°C° 0.1 mm 2 mps 733 mmHg 98%

    28 January, Monday

    Time Temperature Precipitation Wind Pressure Humidity
    00:00 -5°C° 0.1 mm 2 mps 733 mmHg 98%
    01:00 -5°C° 0.1 mm 2 mps 733 mmHg 98%
    02:00 -5°C° 0 mm 2 mps 733 mmHg 98%
    03:00 -4°C° 0 mm 1 mps 733 mmHg 97%
    04:00 -4°C° 0 mm 1 mps 733 mmHg 97%
    05:00 -4°C° 0 mm 1 mps 733 mmHg 97%
    06:00 -3°C° 0 mm 1 mps 733 mmHg 97%
    07:00 -3°C° 0 mm 1 mps 733 mmHg 97%
    08:00 -4°C° 0 mm 2 mps 733 mmHg 95%
    09:00 -4°C° 0 mm 3 mps 733 mmHg 94%
    10:00 -3°C° 0 mm 4 mps 733 mmHg 93%
    11:00 -4°C° 0.6 mm 5 mps 732 mmHg 92%
    12:00 -3°C° 0.6 mm 6 mps 731 mmHg 92%
    13:00 -3°C° 0.6 mm 7 mps 730 mmHg 91%
    14:00 -2°C° 0.8 mm 7 mps 729 mmHg 93%
    15:00 -2°C° 0.8 mm 7 mps 728 mmHg 95%
    16:00 -1°C° 0.8 mm 6 mps 728 mmHg 97%
    17:00 -1°C° 1.1 mm 7 mps 727 mmHg 97%
    18:00 -1°C° 1.1 mm 7 mps 727 mmHg 97%
    19:00 0°C° 1.1 mm 7 mps 727 mmHg 98%
    20:00 0°C° 0.4 mm 7 mps 727 mmHg 97%
    21:00 0°C° 0.4 mm 7 mps 727 mmHg 97%
    22:00 0°C° 0.4 mm 7 mps 726 mmHg 96%
    23:00 -1°C° 0.1 mm 7 mps 727 mmHg 94%

    29 January, Tuesday

    Time Temperature Precipitation Wind Pressure Humidity
    00:00 -1°C° 0.1 mm 7 mps 727 mmHg 91%
    01:00 -2°C° 0.1 mm 7 mps 727 mmHg 89%
    02:00 -4°C° 0 mm 7 mps 728 mmHg 88%
    03:00 -5°C° 0 mm 6 mps 728 mmHg 88%
    04:00 -8°C° 0 mm 6 mps 729 mmHg 87%
    05:00 -7°C° 0 mm 5 mps 730 mmHg 87%
    06:00 -7°C° 0 mm 5 mps 730 mmHg 88%
    07:00 -8°C° 0 mm 5 mps 731 mmHg 88%
    08:00 -8°C° 0 mm 5 mps 731 mmHg 87%
    09:00 -10°C° 0 mm 5 mps 732 mmHg 85%
    10:00 -10°C° 0 mm 5 mps 732 mmHg 84%
    11:00 -10°C° 0.1 mm 5 mps 732 mmHg 83%
    12:00 -10°C° 0.1 mm 5 mps 732 mmHg 83%
    13:00 -10°C° 0.1 mm 5 mps 732 mmHg 82%
    14:00 -10°C° 0.1 mm 5 mps 732 mmHg 82%
    15:00 -11°C° 0.1 mm 6 mps 732 mmHg 81%
    16:00 -11°C° 0.1 mm 6 mps 732 mmHg 81%
    17:00 -14°C° 0.1 mm 7 mps 733 mmHg 81%
    18:00 -15°C° 0.1 mm 7 mps 733 mmHg 81%
    19:00 -18°C° 0.1 mm 7 mps 734 mmHg 81%
    20:00 -19°C° 0 mm 7 mps 734 mmHg 81%
    21:00 -20°C° 0 mm 7 mps 735 mmHg 81%
    22:00 -23°C° 0 mm 7 mps 735 mmHg 81%
    23:00 -23°C° 0 mm 7 mps 736 mmHg 80%
    Show more